Dewpoint
3 3 3 3 2 2 1 3 2 1 0 -0 1 0 -0 0 -1 -0 -1 -1 1 1 1 -1 -2 -2 0 2 1 5 5 7 8 7 7 6 7 7 7 5 4 3 3 2 3 4 3
3 3 3 2 2 2 2 3 2 1 -1 -1 -0 -1 -1 -1 -1 -1 0 1 1 -0 0 0 -0 -1 1 2 -0 1 5 4 7 7 6 7 6 6 5 5 4 3 2 2 2 3 3
3 2 3 2 2 2 2 2 1 0 1 -0 1 0 -1 -1 -1 -0 -1 -1 1 0 -0 -0 0 -1 1 0 3 4 5 5 7 7 5 7 6 6 5 5 4 3 4 2 2 2 1
3 3 2 2 1 1 1 1 1 0 1 1 0 -0 -0 -1 -1 -0 0 -2 -3 -2 0 -0 0 0 0 -1 -0 3 4 4 6 7 6 7 7 5 3 4 4 3 2 4 0 1 2
2 3 2 1 1 1 2 1 1 1 1 2 1 0 -0 0 -0 -0 -1 -1 -2 -2 -1 0 2 0 0 -1 2 4 5 5 5 7 6 7 6 4 4 4 5 4 2 2 3 2 -0
-1 2 1 1 2 2 1 1 1 1 1 1 1 1 1 0 -0 -2 -1 -1 -3 -1 -2 1 0 1 0 1 3 4 5 4 6 7 6 7 7 7 5 3 4 4 3 2 1 2 3
-2 1 0 0 2 1 2 1 1 1 1 2 0 1 1 1 1 0 -0 -3 -1 1 -1 -1 -1 1 1 2 3 5 4 5 7 5 5 5 7 8 5 2 -0 1 2 1 1 0 1
-3 -3 -1 0 1 1 1 1 0 1 2 0 0 -0 -1 -1 1 1 1 -1 -1 -1 -2 0 1 0 1 4 4 4 4 7 6 6 3 6 7 5 3 3 2 2 1 1 3 1 1
-6 -5 -2 1 -0 0 1 0 1 2 2 -0 -1 0 -0 0 2 1 -0 -0 -1 -1 -1 1 2 1 3 4 3 4 5 6 4 4 5 5 5 3 4 4 4 3 2 3 3 1 -1
-7 -7 -2 1 -0 -0 0 1 1 2 2 -1 -2 -3 -1 -0 -1 -1 -0 -0 -1 -0 2 1 3 2 4 4 3 4 5 7 5 5 5 5 4 5 5 4 3 5 3 3 3 3 4
-7 -7 -6 -3 -3 -4 -1 0 1 2 -1 -3 -3 -3 -4 -4 -1 0 -1 -1 -1 0 4 3 3 4 4 4 4 5 5 4 5 5 5 5 6 7 7 4 4 5 3 2 1 2 2
-8 -6 -6 -12 -10 -8 -9 -1 -1 0 -2 -4 -4 -3 -3 -3 -3 -2 -2 -1 -1 3 4 4 3 3 4 4 4 5 5 3 4 4 3 4 5 4 5 6 4 -1 0 0 0 2 5
-7 -6 -8 -16 -18 -13 -25 -12 -6 -2 -1 -4 -2 -3 -3 -2 -1 -1 -1 1 4 4 2 5 5 4 4 5 4 4 4 5 6 7 7 4 5 3 5 4 4 3 3 7 6 7 4
-7 -6 -8 -15 -23 -24 -29 -28 -12 -4 -2 -3 -2 -2 -0 0 1 0 -0 2 4 3 4 3 4 5 6 3 5 5 4 4 1 3 6 7 7 4 3 2 3 2 3 6 3 0 -1
-7 -5 -8 -10 -18 -26 -28 -32 -17 -3 -3 -2 -2 -2 1 1 1 1 2 4 5 4 3 4 2 3 4 3 5 5 3 3 1 0 4 5 5 0 0 -1 0 2 5 -1 2 0 2
-7 -5 -7 -7 -9 -22 -27 -32 -23 -3 -2 -3 -1 -2 1 0 0 -0 4 4 5 3 2 1 3 3 3 3 3 3 3 1 1 -0 -1 2 6 2 0 -0 -1 1 -1 3 4 4 1
-8 -5 -7 -6 -8 -17 -27 -31 -31 -6 -2 -2 -1 -0 1 -0 0 2 4 4 3 2 2 1 2 2 2 2 3 2 2 1 -0 -0 -2 0 2 4 1 2 2 1 2 0 -1 -1 -0
-11 -5 -8 -7 -7 -13 -23 -28 -32 -10 -2 -2 -1 3 1 -0 3 2 4 3 2 3 2 -0 0 1 1 1 1 1 1 1 -1 -1 0 -0 2 4 3 -0 -1 -0 1 -1 2 2 1
-14 -5 -8 -7 -6 -9 -20 -26 -32 -15 -1 -0 -1 -0 0 0 5 4 2 3 3 2 1 -0 0 -0 -0 1 2 1 1 1 -1 -1 -0 -1 3 5 3 2 0 2 0 -1 -1 1 4
-15 -6 -8 -6 -5 -9 -19 -25 -30 -24 -1 -0 1 3 0 1 3 3 3 3 2 2 0 -1 -1 -1 -0 1 0 1 1 1 0 0 -1 -2 0 1 1 2 2 4 2 -0 4 5 1
-16 -7 -8 -5 -5 -8 -17 -22 -27 -29 -5 -1 0 2 2 4 2 2 2 2 2 2 1 0 -0 -1 -0 1 1 1 1 1 1 1 -1 -1 3 2 1 0 1 2 2 1 3 2 6
-17 -8 -6 -5 -5 -6 -12 -17 -25 -30 -11 -0 2 1 2 1 0 1 2 3 3 3 3 1 1 1 0 0 -0 1 1 0 0 -0 -0 -0 5 2 3 0 1 3 1 2 1 1 1
-17 -11 -6 -4 -5 -6 -8 -9 -21 -26 -17 0 0 0 0 1 0 1 2 2 2 2 3 2 1 1 2 1 2 0 -1 -1 -1 0 0 1 3 3 3 1 1 4 2 2 1 0 1
-17 -14 -8 -5 -4 -5 -5 -5 -13 -17 -21 -3 -1 0 1 1 1 1 1 1 3 3 2 3 2 1 1 0 0 0 -0 -0 -0 -0 -1 1 2 2 3 1 5 -0 -1 -1 0 -1 -0
-16 -16 -10 -5 -5 -8 -3 -4 -7 -7 -15 -13 -2 -1 1 1 -0 0 1 2 2 3 3 3 3 3 1 1 1 2 2 1 2 1 -0 -1 1 3 3 2 -0 1 1 1 2 4 -1
-8 -15 -12 -5 -5 -7 -2 -3 -5 -5 -7 -11 -9 -1 -1 1 -0 0 2 2 2 2 2 3 3 3 1 2 2 2 3 1 3 3 0 -0 0 1 3 4 2 2 0 1 -0 6 1
-2 -13 -10 -5 -5 -5 -6 -2 -3 -3 -4 -5 -6 -8 -2 -0 -0 1 1 2 1 1 2 2 3 3 1 3 3 2 3 1 3 3 3 3 3 4 3 3 -0 -3 -2 -1 7 5 2
-0 -8 -5 -3 -4 -3 -6 -4 -2 -3 -4 -3 -4 -6 -6 -2 -2 -3 1 2 3 2 2 2 3 2 3 3 2 2 1 2 3 1 2 1 3 3 1 3 2 -2 2 5 3 2 1
-0 -3 -2 -3 -2 -2 -4 -6 -4 -2 -3 -2 -3 -5 -3 -4 -6 -7 -9 -5 -2 1 2 3 1 1 1 2 3 2 2 4 3 4 1 2 -0 1 0 -1 -3 -1 0 0 0 1 1
Wind_Speed
21 21 22 23 25 26 28 25 29 30 28 27 26 24 23 20 19 17 16 15 12 13 12 11 11 11 10 14 20 7 15 19 28 26 28 26 32 24 15 18 14 13 5 9 7 7 6
21 23 24 25 26 28 26 28 31 30 28 28 27 23 23 21 19 17 16 15 15 13 12 11 10 10 11 15 11 21 12 8 23 31 30 26 26 23 20 14 14 14 7 9 12 8 5
20 22 23 26 27 28 27 30 33 30 28 29 26 24 22 22 18 17 17 15 14 13 13 11 9 10 12 22 13 16 23 7 14 33 32 27 18 22 14 7 12 4 12 13 8 10 10
21 23 24 26 28 28 30 30 29 27 30 28 27 25 24 22 19 18 17 16 14 13 14 13 11 10 11 13 22 10 23 22 10 26 27 27 19 22 11 8 13 12 6 9 11 17 6
22 22 25 28 27 27 30 30 28 30 30 29 26 25 21 18 18 15 15 10 12 12 14 12 8 8 6 8 15 13 17 17 16 25 26 26 19 20 10 14 9 14 10 17 5 12 13
22 23 25 26 26 30 28 30 27 30 29 31 31 26 23 21 20 13 15 11 8 4 3 8 4 5 10 15 11 13 11 16 21 27 21 23 13 8 14 15 15 17 16 14 14 7 10
22 23 26 26 27 29 26 28 28 28 31 35 32 25 23 20 17 14 11 5 1 2 2 2 2 5 3 11 11 13 14 15 23 27 14 25 5 14 20 19 0 8 16 9 7 6 7
23 25 27 26 28 29 27 28 28 27 32 34 31 28 23 19 12 8 6 1 1 1 2 2 5 7 10 5 6 11 5 10 31 22 15 11 14 14 14 14 7 12 13 10 5 5 6
23 26 26 25 27 27 26 26 27 26 29 33 32 28 26 20 12 11 7 3 1 3 1 6 6 5 5 1 4 12 6 17 20 20 15 16 6 14 16 14 12 9 12 10 4 6 1
23 26 26 25 27 26 26 26 27 27 27 31 31 29 24 11 12 11 5 4 2 1 1 2 2 3 0 6 5 3 7 1 4 9 6 3 6 18 18 18 14 11 4 8 8 7 3
21 25 27 25 27 27 24 25 27 26 23 27 28 25 21 20 9 9 5 3 3 1 2 4 1 1 5 5 8 4 2 8 10 12 5 4 7 14 17 18 14 4 7 6 5 3 1
21 24 26 27 28 29 25 25 24 23 20 20 23 21 16 17 15 12 8 5 3 3 9 5 6 3 4 4 4 8 8 15 9 9 14 5 5 5 3 8 6 11 10 7 4 1 4
19 23 26 27 28 30 31 24 22 21 17 16 15 18 14 12 8 8 15 6 2 7 2 6 5 1 7 5 8 5 5 5 4 5 4 2 4 2 10 7 5 3 9 4 3 3 2
18 21 25 26 28 29 31 26 23 19 18 14 13 10 15 15 14 13 13 2 10 4 4 4 5 10 5 4 6 6 4 5 7 9 5 3 4 2 2 1 6 7 4 2 3 4 3
18 20 23 25 27 28 30 30 23 21 18 14 13 9 15 17 14 10 3 7 3 0 2 4 7 5 5 9 5 2 4 3 3 4 4 4 4 4 2 2 3 3 4 2 4 2 2
17 20 22 24 27 28 29 30 25 23 19 16 9 3 20 16 12 8 2 6 2 2 2 2 3 2 4 4 3 3 3 2 2 2 1 3 6 2 5 3 10 2 8 3 0 4 4
17 19 22 23 27 27 27 29 26 24 21 13 6 2 17 10 13 10 4 4 2 4 3 3 2 4 3 4 4 3 2 2 2 2 3 6 3 3 3 2 6 4 3 2 1 2 2
16 19 20 22 26 27 26 27 27 22 22 11 5 2 12 7 6 4 3 4 5 6 5 3 4 5 4 3 3 2 2 1 3 2 3 2 5 5 2 2 3 1 2 3 2 3 1
16 17 20 21 24 27 26 25 26 22 20 15 4 3 10 5 3 3 1 1 1 5 4 3 2 1 1 4 3 2 2 3 2 1 3 5 3 5 4 2 1 4 4 2 4 2 4
16 16 18 18 23 25 25 24 24 21 15 11 5 1 5 8 4 2 2 4 3 2 2 2 2 2 3 2 3 4 3 3 1 2 6 3 3 1 0 3 3 4 8 9 4 3 4
15 15 15 17 21 23 22 23 22 21 14 9 6 3 3 2 3 3 1 1 0 2 4 5 2 1 2 3 2 3 2 4 3 2 2 1 3 0 1 1 2 3 6 12 8 5 5
14 14 13 16 19 22 20 22 20 19 15 6 4 4 4 4 4 1 2 1 1 1 2 1 2 2 1 2 0 5 5 3 2 2 2 2 3 1 0 0 5 5 9 9 13 13 12
14 13 14 15 17 19 18 19 19 17 14 7 5 3 4 3 3 2 1 0 1 1 1 1 5 3 4 2 1 1 1 3 3 5 3 3 5 1 1 2 3 8 15 17 10 9 12
14 13 14 15 16 17 18 18 17 15 12 7 6 4 2 3 3 2 1 2 2 3 2 2 2 3 5 12 10 11 12 10 6 5 2 6 5 1 1 1 4 2 2 4 16 9 15
14 14 14 14 14 14 15 16 15 14 11 6 3 3 3 3 5 9 5 4 2 1 1 0 1 5 12 5 3 4 2 1 4 5 1 1 4 2 2 3 6 2 3 5 6 0 13
17 15 14 13 13 13 12 13 13 13 12 9 3 2 2 5 3 5 4 4 3 3 3 2 4 8 3 1 2 3 3 2 3 2 4 4 2 3 1 3 3 4 3 3 4 4 5
19 15 14 13 13 14 12 12 11 11 11 10 7 4 4 5 7 4 5 3 3 2 2 3 5 4 4 2 3 3 3 2 4 4 4 3 2 7 5 4 5 4 4 1 3 4 1
18 16 14 13 15 16 13 11 11 10 9 11 9 7 4 6 15 16 9 8 5 4 3 4 4 3 3 5 4 3 4 5 4 3 4 8 5 3 5 5 6 3 4 3 1 2 3
18 16 14 14 18 16 13 12 11 11 10 12 13 10 10 10 14 22 24 25 28 19 7 4 3 4 6 3 2 2 3 3 3 3 4 5 5 3 7 3 1 2 2 5 8 11 12
Wind_Direction
346 345 344 342 340 333 329 328 327 328 326 326 326 319 318 314 314 310 303 300 296 291 284 274 266 257 254 230 231 198 187 198 198 190 192 190 189 195 187 198 193 221 189 193 182 156 141
350 345 346 347 339 332 335 332 329 328 331 327 324 318 319 315 311 303 301 296 296 292 287 278 266 250 237 243 252 233 216 143 202 192 191 192 193 188 197 194 198 205 202 192 207 200 170
344 347 348 345 338 341 342 336 334 336 330 328 326 323 318 313 313 303 299 300 292 284 282 262 272 254 244 232 212 221 219 205 192 187 188 193 187 183 167 155 202 190 206 228 204 204 226
350 348 349 345 346 346 342 341 336 335 331 333 331 326 321 311 309 310 299 288 293 291 283 270 265 242 250 254 234 248 216 236 207 187 189 189 182 189 191 146 168 192 204 191 210 209 205
353 348 348 349 349 346 349 345 341 333 339 336 328 323 319 312 301 301 311 292 305 295 294 265 233 208 249 209 222 201 192 201 187 183 190 188 180 182 162 169 160 193 208 211 168 203 205
352 353 352 347 347 348 344 343 346 337 340 335 330 327 326 315 299 296 306 307 303 318 103 121 153 178 247 202 198 192 180 178 168 169 180 191 189 177 183 183 195 190 205 207 206 163 203
352 353 353 352 348 344 349 344 348 348 347 346 349 343 335 322 295 277 278 323 124 143 173 260 159 247 183 180 171 168 172 174 167 165 177 189 194 187 185 194 62 181 196 189 209 140 207
355 355 354 353 350 348 351 350 356 354 353 359 359 360 356 345 324 190 221 105 237 192 164 305 305 296 268 229 147 166 194 214 162 163 160 169 209 206 183 180 164 183 189 184 107 165 230
356 359 356 353 351 350 352 357 357 359 357 1 3 4 5 17 63 104 100 84 168 133 311 53 29 274 295 229 118 190 232 139 162 162 175 181 208 193 186 179 183 191 198 172 153 149 111
355 1 358 352 354 354 354 356 357 2 1 7 14 12 16 32 48 84 70 25 127 110 144 24 76 332 183 128 86 327 177 87 59 173 103 152 299 188 186 188 183 180 170 152 139 184 210
354 1 1 352 353 356 353 356 357 5 7 13 13 19 26 54 70 55 9 17 164 304 132 21 113 309 103 27 122 89 2 41 114 144 153 184 227 173 186 187 192 115 155 124 117 140 251
352 360 2 357 354 357 356 352 358 6 9 14 15 15 39 55 68 67 55 30 318 249 40 25 16 59 110 197 169 96 82 75 86 79 76 33 12 29 101 77 76 134 109 85 91 104 231
348 358 3 360 356 358 360 354 358 3 8 358 7 14 8 23 41 11 354 323 306 42 246 8 75 289 96 81 71 49 79 100 139 125 78 30 46 34 111 79 90 80 167 139 175 189 251
344 356 4 2 359 359 1 358 354 359 359 354 354 3 12 15 3 352 338 271 51 329 26 231 99 68 50 85 48 19 83 83 41 102 104 90 109 59 230 133 173 177 239 263 190 180 139
339 352 1 2 360 359 0 1 354 354 357 351 355 34 15 4 351 349 358 56 27 4 260 113 88 74 86 73 103 81 41 72 43 9 90 121 83 96 127 120 160 172 216 20 95 61 230
332 348 356 1 360 360 359 1 357 355 354 358 4 27 12 15 17 24 39 89 85 227 292 248 82 305 140 106 124 125 21 34 89 54 269 124 112 43 157 149 55 249 134 168 240 184 224
329 342 351 358 358 358 359 360 1 356 357 3 19 44 1 31 45 47 48 53 15 14 0 4 114 115 118 143 130 99 115 145 194 95 123 136 98 150 193 210 177 151 190 78 103 312 274
325 335 348 352 358 355 358 360 2 360 359 10 30 45 1 43 56 46 28 336 332 345 7 49 87 85 153 163 123 153 163 145 147 144 97 79 106 151 150 35 306 290 209 208 255 170 31
318 331 341 348 354 354 355 359 3 4 4 359 10 347 19 55 90 69 13 25 265 10 15 19 78 27 118 158 159 131 83 1 179 81 154 163 108 125 161 196 190 219 195 156 103 68 198
312 325 334 344 350 354 354 356 3 4 3 0 354 328 8 48 61 68 53 29 10 23 30 14 89 126 130 108 30 143 131 36 350 55 89 101 110 297 239 86 117 191 194 194 167 181 175
305 317 329 336 344 354 354 356 0 5 7 8 19 39 334 341 47 1 354 137 39 13 4 22 120 102 162 146 126 135 138 134 79 107 53 49 107 71 38 67 190 217 198 194 205 194 210
299 306 320 328 337 349 350 355 356 3 15 32 38 357 329 290 314 325 313 127 189 159 278 71 167 80 232 166 19 185 163 200 153 140 118 27 108 82 19 42 250 265 243 221 223 235 252
292 298 309 319 329 336 346 351 355 359 23 59 27 13 347 310 303 217 158 349 280 226 129 121 134 118 85 31 240 338 242 131 149 162 133 131 138 165 231 354 282 265 232 212 206 209 221
288 290 297 309 327 328 338 344 355 359 13 46 36 358 329 290 286 289 292 258 254 275 243 155 169 144 130 108 98 93 86 83 91 73 132 155 119 139 299 251 235 77 120 216 214 229 222
288 287 292 302 316 319 325 336 349 357 358 18 54 7 317 282 292 284 262 250 209 121 98 117 65 134 151 143 127 130 77 85 57 44 67 212 144 141 259 244 305 203 159 167 181 173 225
290 282 286 292 305 311 311 322 335 348 353 357 324 276 279 308 249 276 303 288 227 176 149 112 122 154 149 82 157 171 192 188 181 162 38 93 76 224 151 268 252 69 111 216 204 168 175
299 285 279 280 295 305 294 307 322 336 329 344 344 316 249 270 272 254 240 265 279 239 180 147 168 181 183 173 184 181 175 178 195 202 174 162 161 219 218 265 280 248 224 319 227 93 116
293 284 274 280 293 297 287 286 304 324 312 313 321 323 288 259 269 253 247 247 266 248 199 138 142 188 181 210 205 171 200 189 192 187 180 189 192 200 204 228 257 158 125 196 359 324 309
273 276 267 284 299 287 282 281 288 294 311 284 295 305 285 268 270 283 276 251 242 247 278 223 299 176 181 192 206 151 171 163 193 220 183 209 211 189 214 229 323 228 237 305 309 294 299
Height
1537 1534 1530 1526 1522 1517 1512 1509 1504 1498 1494 1490 1485 1482 1478 1476 1473 1471 1470 1468 1467 1467 1466 1465 1466 1467 1468 1470 1462 1462 1462 1467 1473 1478 1483 1487 1490 1495 1496 1500 1504 1503 1504 1507 1509 1510 1512
1538 1535 1530 1526 1521 1515 1508 1506 1500 1495 1490 1486 1481 1477 1474 1472 1469 1467 1466 1465 1463 1462 1462 1462 1462 1463 1465 1464 1459 1461 1463 1466 1467 1473 1480 1485 1487 1493 1498 1499 1501 1502 1505 1505 1507 1509 1511
1538 1534 1530 1525 1518 1512 1507 1501 1496 1492 1487 1482 1477 1474 1470 1467 1465 1463 1461 1460 1459 1458 1458 1458 1459 1460 1460 1455 1456 1456 1458 1461 1465 1470 1476 1482 1487 1492 1492 1498 1501 1504 1504 1505 1506 1507 1508
1536 1531 1527 1522 1517 1511 1505 1499 1494 1488 1483 1478 1473 1469 1465 1463 1460 1458 1456 1455 1454 1454 1454 1454 1455 1457 1454 1451 1451 1453 1455 1460 1466 1471 1477 1482 1486 1491 1491 1495 1499 1501 1502 1503 1497 1504 1507
1534 1530 1526 1522 1515 1508 1503 1497 1491 1486 1480 1475 1470 1465 1461 1458 1456 1455 1453 1451 1451 1450 1449 1449 1452 1455 1452 1447 1447 1450 1452 1460 1465 1471 1477 1483 1486 1487 1491 1490 1497 1495 1491 1495 1499 1499 1501
1531 1528 1524 1519 1513 1507 1500 1495 1488 1482 1477 1472 1465 1460 1456 1453 1452 1451 1451 1450 1449 1449 1449 1449 1451 1456 1448 1446 1446 1448 1451 1457 1461 1469 1478 1483 1483 1486 1484 1483 1483 1485 1491 1493 1492 1498 1500
1530 1526 1521 1515 1511 1505 1498 1492 1486 1481 1475 1468 1460 1455 1450 1448 1440 1446 1448 1449 1452 1452 1449 1449 1449 1448 1445 1446 1448 1448 1451 1455 1459 1468 1468 1476 1478 1475 1475 1478 1480 1481 1490 1492 1491 1497 1498
1529 1524 1520 1515 1510 1504 1497 1491 1485 1479 1473 1466 1460 1453 1446 1442 1438 1439 1445 1448 1449 1450 1449 1449 1448 1447 1445 1446 1447 1449 1452 1454 1453 1459 1466 1476 1476 1477 1476 1480 1484 1484 1487 1490 1497 1498 1498
1528 1525 1520 1515 1509 1502 1496 1490 1484 1479 1473 1466 1460 1454 1448 1443 1439 1443 1446 1447 1447 1450 1449 1450 1449 1448 1446 1448 1449 1452 1453 1446 1456 1459 1464 1467 1472 1473 1478 1480 1483 1486 1487 1490 1490 1498 1501
1527 1524 1519 1514 1508 1501 1495 1490 1483 1478 1473 1467 1461 1455 1450 1446 1448 1447 1448 1447 1451 1451 1449 1455 1452 1451 1449 1447 1451 1453 1451 1453 1460 1463 1473 1476 1475 1472 1475 1478 1480 1488 1491 1490 1493 1494 1489
1526 1523 1517 1512 1506 1499 1493 1488 1483 1478 1473 1468 1464 1458 1454 1449 1451 1451 1451 1449 1451 1453 1434 1456 1452 1451 1450 1450 1452 1453 1455 1455 1459 1471 1478 1482 1478 1474 1478 1477 1481 1490 1492 1492 1495 1494 1496
1526 1522 1517 1511 1506 1499 1492 1488 1483 1478 1474 1469 1467 1463 1459 1456 1454 1453 1451 1452 1452 1448 1442 1455 1455 1455 1454 1454 1453 1456 1457 1458 1466 1469 1476 1481 1478 1479 1482 1487 1490 1492 1492 1497 1498 1498 1496
1524 1521 1516 1511 1506 1500 1495 1488 1482 1478 1473 1469 1466 1464 1461 1458 1457 1454 1452 1451 1444 1442 1465 1459 1457 1455 1452 1453 1455 1460 1460 1463 1465 1470 1475 1486 1485 1485 1484 1491 1495 1494 1490 1497 1498 1497 1486
1523 1520 1516 1511 1506 1500 1494 1488 1484 1477 1473 1468 1465 1464 1462 1459 1456 1454 1453 1452 1444 1463 1459 1462 1457 1458 1457 1459 1465 1466 1463 1462 1463 1461 1475 1475 1484 1489 1489 1485 1487 1491 1485 1482 1480 1480 1482
1521 1519 1514 1509 1504 1499 1493 1488 1482 1477 1472 1467 1464 1464 1461 1458 1454 1453 1455 1453 1465 1466 1467 1458 1456 1456 1459 1462 1466 1471 1466 1466 1468 1463 1465 1475 1487 1488 1489 1488 1487 1492 1491 1495 1496 1506 1493
1520 1517 1514 1510 1504 1498 1493 1487 1482 1477 1472 1467 1464 1463 1461 1457 1454 1453 1454 1461 1466 1467 1464 1461 1461 1460 1458 1463 1463 1463 1466 1468 1468 1469 1469 1476 1486 1489 1492 1491 1493 1489 1493 1495 1497 1490 1479
1521 1517 1514 1510 1505 1499 1493 1486 1481 1477 1472 1466 1464 1463 1462 1459 1457 1457 1464 1468 1466 1466 1464 1461 1461 1461 1461 1462 1462 1464 1469 1471 1470 1471 1470 1473 1475 1493 1489 1488 1487 1494 1492 1494 1488 1490 1476
1519 1517 1514 1509 1506 1500 1494 1487 1480 1476 1472 1468 1465 1465 1464 1460 1463 1471 1472 1471 1468 1464 1463 1462 1462 1463 1464 1464 1463 1463 1463 1466 1470 1470 1470 1475 1478 1486 1487 1491 1490 1488 1486 1485 1480 1490 1498
1515 1514 1512 1509 1505 1499 1496 1489 1482 1477 1473 1471 1469 1467 1465 1461 1465 1469 1470 1469 1469 1466 1465 1463 1463 1464 1466 1465 1467 1468 1469 1471 1471 1470 1469 1472 1480 1488 1492 1494 1492 1489 1489 1490 1492 1494 1497
1514 1511 1510 1508 1505 1501 1495 1491 1484 1479 1476 1474 1473 1470 1468 1466 1469 1468 1467 1468 1467 1466 1466 1465 1465 1465 1465 1467 1468 1470 1470 1473 1473 1472 1472 1472 1478 1476 1471 1478 1482 1490 1487 1489 1491 1492 1484
1513 1509 1509 1506 1504 1500 1494 1490 1486 1480 1476 1476 1476 1478 1477 1470 1469 1469 1468 1468 1467 1466 1466 1465 1464 1464 1464 1465 1467 1469 1472 1472 1474 1474 1474 1473 1478 1483 1483 1483 1484 1483 1484 1488 1492 1485 1484
1510 1508 1506 1504 1501 1500 1495 1490 1487 1481 1476 1479 1480 1480 1479 1475 1472 1470 1470 1467 1466 1467 1467 1464 1463 1465 1464 1463 1465 1467 1470 1469 1469 1475 1474 1477 1485 1490 1488 1486 1485 1486 1481 1481 1484 1483 1482
1507 1507 1505 1503 1501 1497 1492 1489 1486 1484 1478 1479 1482 1482 1482 1476 1473 1469 1467 1468 1467 1467 1467 1466 1465 1465 1465 1468 1469 1469 1470 1469 1469 1471 1475 1476 1484 1485 1477 1486 1484 1480 1472 1474 1476 1477 1476
1504 1503 1501 1502 1500 1499 1496 1491 1486 1485 1482 1480 1482 1483 1482 1476 1475 1470 1469 1469 1467 1467 1465 1466 1466 1464 1470 1469 1470 1471 1471 1472 1473 1474 1475 1476 1480 1484 1479 1482 1474 1463 1466 1466 1468 1468 1471
1500 1500 1499 1497 1496 1495 1493 1493 1488 1484 1483 1481 1481 1483 1483 1479 1476 1472 1470 1468 1467 1466 1466 1466 1466 1466 1467 1469 1469 1471 1473 1474 1476 1477 1476 1476 1478 1483 1480 1474 1464 1458 1464 1465 1464 1460 1462
1497 1496 1496 1495 1494 1492 1492 1490 1489 1485 1483 1481 1481 1482 1483 1482 1473 1474 1472 1469 1465 1464 1465 1466 1467 1467 1468 1469 1468 1470 1470 1473 1476 1478 1479 1478 1478 1478 1486 1482 1462 1457 1459 1461 1462 1458 1460
1492 1492 1494 1492 1491 1490 1489 1488 1487 1485 1483 1481 1481 1481 1482 1481 1473 1473 1471 1467 1466 1465 1462 1465 1467 1468 1468 1467 1466 1468 1468 1471 1472 1473 1475 1479 1481 1479 1477 1474 1461 1458 1460 1462 1463 1461 1459
1488 1487 1490 1490 1488 1488 1485 1484 1484 1483 1483 1481 1480 1479 1480 1478 1470 1469 1468 1467 1465 1465 1460 1464 1466 1466 1467 1465 1462 1464 1464 1468 1469 1468 1470 1471 1475 1478 1479 1477 1470 1459 1460 1461 1459 1457 1458
1485 1485 1484 1486 1485 1484 1484 1481 1481 1480 1481 1478 1477 1477 1477 1476 1468 1464 1462 1460 1462 1462 1465 1461 1460 1458 1459 1460 1461 1461 1462 1468 1463 1463 1468 1467 1463 1463 1465 1458 1457 1458 1458 1458 1458 1457 1456